TimeMST,TemperatureF,Dew PointF,Humidity,Sea Level PressureIn,VisibilityMPH,Wind Direction,Wind SpeedMPH,Gust SpeedMPH,PrecipitationIn,Events,Conditions,WindDirDegrees,DateUTC
12:53 AM,54.0,9.0,17,29.79,10.0,West,4.6,-,N/A,,Clear,280,2013-03-18 07:53:00
1:53 AM,54.0,8.1,16,29.80,10.0,West,6.9,-,N/A,,Clear,280,2013-03-18 08:53:00
2:53 AM,53.1,9.0,17,29.80,10.0,West,4.6,-,N/A,,Clear,280,2013-03-18 09:53:00
3:53 AM,48.0,10.9,22,29.82,10.0,Calm,Calm,-,N/A,,Clear,0,2013-03-18 10:53:00
4:53 AM,46.0,12.9,26,29.84,10.0,Calm,Calm,-,N/A,,Clear,0,2013-03-18 11:53:00
5:53 AM,46.0,12.9,26,29.86,10.0,Calm,Calm,-,N/A,,Clear,0,2013-03-18 12:53:00
6:53 AM,45.0,12.9,27,29.90,10.0,Calm,Calm,-,N/A,,Clear,0,2013-03-18 13:53:00
7:53 AM,50.0,12.9,23,29.92,10.0,WNW,3.5,-,N/A,,Clear,290,2013-03-18 14:53:00
8:53 AM,54.0,9.0,17,29.94,10.0,West,8.1,-,N/A,,Clear,270,2013-03-18 15:53:00
9:53 AM,57.0,10.0,15,29.94,10.0,Variable,5.8,16.1,N/A,,Clear,0,2013-03-18 16:53:00
10:53 AM,60.1,7.0,12,29.94,10.0,North,9.2,-,N/A,,Clear,350,2013-03-18 17:53:00
11:53 AM,61.0,7.0,12,29.92,10.0,East,5.8,16.1,N/A,,Clear,90,2013-03-18 18:53:00
12:53 PM,62.1,5.0,10,29.91,10.0,Calm,Calm,-,N/A,,Clear,0,2013-03-18 19:53:00
1:53 PM,66.0,3.9,9,29.87,10.0,Variable,3.5,-,N/A,,Clear,0,2013-03-18 20:53:00
2:53 PM,66.0,3.0,8,29.84,10.0,Variable,4.6,-,N/A,,Clear,0,2013-03-18 21:53:00
3:53 PM,66.0,3.0,8,29.84,10.0,Variable,5.8,-,N/A,,Clear,0,2013-03-18 22:53:00
4:53 PM,68.0,3.0,8,29.83,10.0,NNE,3.5,-,N/A,,Clear,20,2013-03-18 23:53:00
5:53 PM,66.9,-0.0,7,29.83,10.0,West,6.9,17.3,N/A,,Clear,260,2013-03-19 00:53:00
6:53 PM,64.0,1.0,8,29.84,10.0,West,8.1,-,N/A,,Clear,270,2013-03-19 01:53:00
7:53 PM,63.0,1.9,9,29.85,10.0,WSW,8.1,17.3,N/A,,Clear,250,2013-03-19 02:53:00
8:53 PM,61.0,5.0,11,29.86,10.0,West,4.6,-,N/A,,Clear,270,2013-03-19 03:53:00
9:53 PM,59.0,8.1,13,29.88,10.0,SW,5.8,-,N/A,,Clear,230,2013-03-19 04:53:00
10:53 PM,57.9,8.1,14,29.88,10.0,WSW,6.9,-,N/A,,Clear,250,2013-03-19 05:53:00
11:53 PM,57.0,8.1,14,29.88,10.0,Calm,Calm,-,N/A,,Clear,0,2013-03-19 06:53:00